Simultaneous Nadir Overpasses (SNOs) Predictions

Prediction of SNOs between NOAA-21 and LANDSAT-8 Satellite Orbit:

Table of predicted SNOs for the next 14.0 days since TLE Epoch: 5/18/2024
Index Date (NOAA-21) Time (NOAA-21) Lat,Lon (NOAA-21) SZA (NOAA-21 ) Date (LANDSAT-8) Time (LANDSAT-8) Lat,Lon (LANDSAT-8) SZA (LANDSAT-8 ) Distance(km) Time Diff (sec)
1 05/20/2024 14:52:35 70.12, -47.11 49.88 05/20/2024 14:53:22 70.12, -47.18 49.88 2.85 47
2 05/20/2024 15:43:17 -70.03, 120.33 130.22 05/20/2024 15:42:52 -70.01, 120.29 130.24 2.86 25
3 05/23/2024 07:09:26 70.12, 68.68 49.36 05/23/2024 07:09:49 70.14, 68.72 49.37 2.69 23
4 05/23/2024 08:00:08 -70.03,-123.87 130.74 05/23/2024 07:59:19 -70.03,-123.80 130.74 2.58 49
5 05/25/2024 22:35:36 -70.41, 16.72 130.82 05/25/2024 22:36:47 -70.31, 17.21 130.94 20.94 71
6 05/25/2024 23:26:16 70.08,-175.47 48.84 05/25/2024 23:26:16 70.09,-175.47 48.84 0.79 0
7 05/26/2024 00:16:58 -70.00, -8.02 131.26 05/26/2024 00:15:46 -69.98, -7.99 131.27 2.08 72
8 05/28/2024 14:52:22 -70.18, 132.88 131.50 05/28/2024 14:53:15 -70.15, 132.86 131.53 3.10 53
9 05/28/2024 15:43:06 70.07, -59.64 48.39 05/28/2024 15:42:41 70.09, -59.58 48.41 3.36 25
10 05/28/2024 16:33:32 -69.13, 109.04 132.58 05/28/2024 16:32:25 -69.21, 106.86 132.44 86.51 67
11 05/31/2024 07:09:10 -70.12,-111.24 131.94 05/31/2024 07:09:38 -70.14,-111.25 131.93 2.28 28
12 05/31/2024 07:59:54 70.01, 56.23 47.94 05/31/2024 07:59:05 70.02, 56.22 47.96 1.11 49



Historial Predications of SNOs between NOAA-21 and LANDSAT-8
